x

Eel River - 17nm Wsw Of Eureka, Ca (46022) Weather Station

8:20pm - Fri 22nd Jun 2018 All times are PDT. -7 hours from GMT.

  • Wind
    11mph, 16mph gusts
  • Sea Temp 54°f
  • Air Temp 56°f
  • Sea Pressure 1019.5mb
  • Eel River - 17nm Wsw Of Eureka, Ca
  • Eel River - 17nm Wsw Of Eureka, Ca

More Historic Weather Station data

Upgrade to MSW Pro to gain access to the past 30 days of data for over 8000 Wavebouys and Weather Stations around the globe.

Join

Comparision Forecast

View Surf forecast
   
Fri 06/22 8:20pm  -   -  11 16 mph 1019.5mb 54f 56f
8:10pm  -   -  11 18 mph 1019.5mb 54f 56f
8:00pm  -   -  7 11 mph 1019.7mb 54f 56f
7:50pm 7ft 8s 4 7 mph 1019.6mb 54f 56f
7:40pm  -   -  7 9 mph 1019.6mb 54f 56f
7:30pm  -   -  7 9 mph 1019.6mb 54f 56f
7:20pm  -   -  7 9 mph 1019.6mb 54f 56f
7:10pm  -   -  7 9 mph 1019.6mb 54f 56f
7:00pm  -   -  4 9 mph 1019.7mb 54f 56f
6:50pm 6.5ft 8s 4 7 mph 1019.8mb 54f 56f
6:40pm  -   -  4 7 mph 1019.8mb 54f 56f
6:30pm  -   -  4 7 mph 1019.8mb 55f 56f
6:20pm  -   -  4 4 mph 1019.9mb 54f 56f
6:10pm  -   -  4 4 mph 1020mb 54f 56f
6:00pm  -   -  4 7 mph 1019.8mb 54f 56f
5:50pm 6ft 7s 4 4 mph 1020.2mb 54f 56f
5:40pm  -   -  4 7 mph 1020.2mb 54f 56f
5:30pm  -   -  4 7 mph 1020.3mb 54f 56f
5:20pm  -   -  4 4 mph 1020.3mb 54f 56f
5:10pm  -   -  2 4 mph 1020.3mb 54f 56f
5:00pm  -   -  4 7 mph 1020.3mb 54f 56f
4:50pm 6ft 7s 4 7 mph 1020.3mb 54f 56f
4:40pm  -   -  4 7 mph 1020.3mb 54f 56f
4:30pm  -   -  4 7 mph 1020.3mb 54f 56f
4:20pm  -   -  7 7 mph 1020.3mb 54f 56f
4:10pm  -   -  7 9 mph 1020.3mb 54f 56f
4:00pm  -   -  7 11 mph 1020.3mb 54f 55f
3:50pm 5ft 7s 9 11 mph 1020.4mb 54f 56f
3:40pm  -   -  9 11 mph 1020.4mb 54f 56f
3:30pm  -   -  9 11 mph 1020.4mb 54f 56f
3:20pm  -   -  11 13 mph 1020.4mb 54f 56f
3:10pm  -   -  11 13 mph 1020.4mb 54f 55f
3:00pm  -   -  11 13 mph 1020.3mb 54f 55f
2:50pm  -   -  11 16 mph 1020.4mb 54f 55f
2:40pm  -   -  11 13 mph 1020.5mb 54f 55f
2:30pm  -   -  11 16 mph 1020.5mb 54f 55f
2:20pm  -   -  13 16 mph 1020.5mb 54f 55f
2:10pm  -   -  11 16 mph 1020.6mb 53f 55f
2:00pm  -   -  13 16 mph 1020.6mb 53f 55f
1:50pm 5ft 7s 11 16 mph 1020.6mb 53f 55f
1:40pm  -   -  13 16 mph 1020.7mb 53f 55f
1:30pm  -   -  13 18 mph 1020.8mb 53f 55f
1:20pm  -   -  13 18 mph 1020.8mb 53f 55f
1:10pm  -   -  16 18 mph 1020.9mb 53f 55f
1:00pm  -   -  16 20 mph 1020.9mb 53f 55f
12:50pm 5ft 6s 16 18 mph 1020.8mb 53f 55f
12:40pm  -   -  16 20 mph 1020.8mb 53f 55f
12:30pm  -   -  16 20 mph 1020.9mb 53f 55f
12:20pm  -   -  16 20 mph 1020.8mb 53f 55f
12:10pm  -   -  16 20 mph 1020.9mb 53f 55f
12:00pm  -   -  16 20 mph 1021mb 53f 55f
11:50am 5ft 7s 16 20 mph 1021mb 53f 55f
11:40am  -   -  11 16 mph 1021mb 53f 54f
11:30am  -   -  11 13 mph 1021.1mb 53f 53f
11:20am  -   -  13 16 mph 1021.1mb 53f 53f
11:10am  -   -  13 16 mph 1021.2mb 53f 53f
11:00am  -   -  13 18 mph 1021.2mb 53f 53f
10:50am 5ft 6s 16 20 mph 1021mb 53f 53f
10:40am  -   -  16 20 mph 1021mb 53f 53f
10:30am  -   -  16 20 mph 1020.9mb 53f 53f
10:20am  -   -  16 20 mph 1020.9mb 54f 53f
10:10am  -   -  16 20 mph 1020.9mb 54f 53f
10:00am  -   -  16 20 mph 1020.8mb 54f 53f
9:50am 5ft 7s 16 18 mph 1020.7mb 54f 54f
9:40am  -   -  18 20 mph 1020.8mb 54f 54f
9:30am  -   -  18 25 mph 1020.4mb 54f 54f
9:20am  -   -  16 22 mph 1020.8mb 54f 54f
9:10am  -   -  16 18 mph 1020.8mb 54f 55f
9:00am  -   -  16 20 mph 1020.8mb 54f 55f
8:50am 5ft 7s 16 18 mph 1020.7mb 54f 55f
8:40am  -   -  16 18 mph 1020.7mb 54f 55f
8:30am  -   -  13 18 mph 1020.7mb 54f 55f
8:20am  -   -  13 18 mph 1020.7mb 54f 55f
8:10am  -   -  13 16 mph 1020.8mb 54f 55f
8:00am  -   -  13 16 mph 1020.8mb 54f 55f
7:50am  -   -  13 16 mph 1020.7mb 54f 55f
7:40am  -   -  13 16 mph 1020.7mb 54f 55f
7:30am  -   -  13 16 mph 1020.7mb 54f 55f
7:20am  -   -  13 18 mph 1020.5mb 54f 55f
7:10am  -   -  16 18 mph 1020.5mb 54f 55f
7:00am  -   -  16 18 mph 1020.5mb 54f 56f
6:50am 4.5ft 7s 16 20 mph 1020.6mb 54f 56f
6:40am  -   -  13 18 mph 1020.6mb 55f 56f
6:30am  -   -  13 16 mph 1020.5mb 55f 55f
6:20am  -   -  11 13 mph 1020.5mb 55f 55f
6:10am  -   -  11 13 mph 1020.5mb 55f 55f
6:00am  -   -  11 13 mph 1020.5mb 55f 55f
5:50am 4ft 6s 9 11 mph 1020.6mb 55f 55f
5:40am  -   -  11 13 mph 1020.6mb 55f 55f
5:30am  -   -  11 13 mph 1020.6mb 55f 55f
5:20am  -   -  13 13 mph 1020.6mb 55f 56f
5:10am  -   -  13 16 mph 1020.6mb 55f 56f
5:00am  -   -  13 16 mph 1020.8mb 55f 56f
4:50am 4.5ft 6s 13 18 mph 1020.7mb 55f 56f
4:40am  -   -  13 18 mph 1020.7mb 55f 56f
4:30am  -   -  16 18 mph 1020.8mb 55f 56f
4:20am  -   -  16 18 mph 1020.8mb - 56f
4:10am  -   -  16 18 mph 1020.8mb 55f 56f
4:00am  -   -  13 18 mph 1020.9mb 55f 56f
3:50am 3.5ft 6s 13 18 mph 1021mb 55f 56f
3:40am  -   -  13 16 mph 1021.1mb 55f 56f
3:30am  -   -  13 16 mph 1021.1mb 55f 56f
3:20am  -   -  13 16 mph 1021mb 55f 56f
3:10am  -   -  13 16 mph 1021mb 55f 56f
3:00am  -   -  13 16 mph 1020.9mb 55f 56f
2:50am 3ft 6s 11 16 mph 1021mb 56f 55f
2:40am  -   -  9 13 mph 1021.1mb 56f 55f
2:30am  -   -  9 11 mph 1021.1mb 55f 55f
2:20am  -   -  9 11 mph 1021.3mb 55f 55f
2:10am  -   -  11 13 mph 1021.1mb 54f 55f
2:00am  -   -  9 11 mph 1021.1mb 54f 55f
1:50am 3.5ft 6s 9 11 mph 1021.1mb 53f 55f
1:40am  -   -  11 13 mph 1021.1mb 53f 55f
1:30am  -   -  11 13 mph 1021.2mb 53f 55f
1:20am  -   -  9 11 mph 1021.2mb 53f 55f
1:10am  -   -  9 11 mph 1021.2mb 53f 55f
1:00am  -   -  9 11 mph 1021.3mb 53f 55f
12:50am 3.5ft 9s 9 11 mph 1021.4mb 53f 55f
12:40am  -   -  9 11 mph 1021.4mb 53f 55f
12:30am  -   -  11 13 mph 1021.4mb 53f 55f
12:20am  -   -  11 13 mph 1021.5mb 53f 55f
12:10am  -   -  11 16 mph 1021.2mb 53f 55f
12:00am  -   -  11 16 mph 1021.4mb 53f 55f
Thu 06/21 11:50pm 3.5ft 5s 11 13 mph 1021.3mb 53f 55f
11:40pm  -   -  9 11 mph 1021.4mb 53f 55f
11:30pm  -   -  9 11 mph 1021.3mb 53f 55f
11:20pm  -   -  9 11 mph 1021.3mb 53f 55f
11:10pm  -   -  9 11 mph 1021.2mb 54f 55f
11:00pm  -   -  11 11 mph 1021.3mb 54f 55f
10:50pm 3.5ft 10s 9 11 mph 1021.4mb 54f 55f
10:40pm  -   -  9 11 mph 1021.4mb 54f 55f
10:30pm  -   -  9 11 mph 1021.5mb 54f 55f
10:20pm  -   -  9 11 mph 1021.4mb 54f 55f
10:10pm  -   -  9 9 mph 1021.4mb 54f 55f
10:00pm  -   -  9 11 mph 1021.3mb 54f 55f
9:50pm 3.5ft 10s 9 11 mph 1021.2mb 53f 55f
9:40pm  -   -  11 13 mph 1021.1mb 53f 55f
9:30pm  -   -  11 13 mph 1021mb - 55f
9:20pm  -   -  11 13 mph 1020.9mb 53f 55f
9:10pm  -   -  11 13 mph 1020.9mb 53f 55f
9:00pm  -   -  11 13 mph 1020.8mb 53f 55f
8:50pm 3ft 9s 13 16 mph 1020.8mb 53f 55f
8:40pm  -   -  13 16 mph 1020.9mb 53f 55f
8:30pm  -   -  13 16 mph 1020.8mb 53f 55f
8:20pm  -   -  13 16 mph 1020.8mb 53f 55f
8:10pm  -   -  13 16 mph 1021mb 53f 55f
8:00pm  -   -  11 13 mph 1020.8mb 53f 55f
7:50pm 3ft 9s 11 13 mph 1020.8mb 53f 56f
7:40pm  -   -  11 16 mph 1020.8mb 53f 56f
7:30pm  -   -  13 16 mph 1020.8mb 53f 56f
7:20pm  -   -  13 16 mph 1020.8mb 54f 55f
7:10pm  -   -  13 16 mph 1020.8mb 54f 55f
7:00pm  -   -  11 13 mph 1020.8mb 53f 55f
6:50pm 3ft 10s 11 13 mph 1020.8mb 54f 56f
6:40pm  -   -  11 16 mph 1020.9mb 53f 56f
6:30pm  -   -  11 13 mph 1020.8mb 53f 56f
6:20pm  -   -  11 11 mph 1020.7mb 54f 56f
6:10pm  -   -  11 11 mph 1020.6mb 54f 55f
6:00pm  -   -  11 13 mph 1020.6mb 54f 55f
5:50pm 2.5ft 13s 11 13 mph 1020.8mb 54f 55f
5:40pm  -   -  11 13 mph 1020.8mb 54f 56f
5:30pm  -   -  11 16 mph 1020.9mb 54f 56f
5:20pm  -   -  11 13 mph 1021.1mb 54f 56f
5:10pm  -   -  11 13 mph 1021.1mb 54f 55f
5:00pm  -   -  11 13 mph 1021.1mb 53f 55f
4:50pm 2.5ft 11s 11 13 mph 1021.4mb 53f 55f
4:40pm  -   -  11 13 mph 1021.5mb 53f 56f
4:20pm  -   -  11 13 mph 1021.8mb 53f 55f
4:10pm  -   -  9 11 mph 1021.9mb 53f 55f
4:00pm  -   -  7 9 mph 1021.8mb 53f 55f
3:50pm 3ft 13s 7 9 mph 1022mb 53f 55f
3:40pm  -   -  7 9 mph 1022.1mb 53f 55f
3:30pm  -   -  7 9 mph 1022mb 53f 55f
3:20pm  -   -  7 9 mph 1022.1mb 53f 55f
3:10pm  -   -  7 9 mph 1022mb 53f 55f
3:00pm  -   -  7 9 mph 1021.9mb 53f 55f
2:50pm 2.5ft 10s 7 9 mph 1021.8mb 53f 55f
2:40pm  -   -  7 9 mph 1021.9mb 54f 55f
2:30pm  -   -  9 11 mph 1021.9mb 53f 55f
2:20pm  -   -  9 11 mph 1021.9mb 53f 54f
2:10pm  -   -  9 11 mph 1021.7mb 53f 54f
2:00pm  -   -  9 11 mph 1021.7mb 53f 54f
1:50pm 3ft 9s 9 11 mph 1021.6mb 53f 54f
1:40pm  -   -  9 11 mph 1021.5mb 53f 54f
1:30pm  -   -  9 11 mph 1021.6mb 53f 54f
1:20pm  -   -  9 11 mph 1021.7mb 53f 54f
1:10pm  -   -  9 11 mph 1021.5mb 53f 54f
1:00pm  -   -  9 11 mph 1021.4mb 53f 54f
12:50pm 3ft 10s 9 11 mph 1021.5mb 53f 54f
12:40pm  -   -  9 9 mph 1021.4mb 53f 54f
12:30pm  -   -  9 11 mph 1021.2mb 53f 54f
12:20pm  -   -  9 9 mph 1021.1mb 53f 54f
12:10pm  -   -  7 9 mph 1021.2mb 53f 54f
12:00pm  -   -  7 9 mph 1021.3mb 53f 54f
11:50am 3.5ft 10s 7 9 mph 1021.3mb 53f 54f
11:40am  -   -  7 9 mph 1021.3mb 53f 54f
11:30am  -   -  9 9 mph 1021.3mb 53f 54f
11:20am  -   -  9 11 mph 1021.2mb 53f 54f
11:10am  -   -  9 11 mph 1021.4mb 53f 54f
11:00am  -   -  9 11 mph 1021.2mb 53f 54f
10:50am 3.5ft 10s 9 13 mph 1021.2mb 53f 54f
10:40am  -   -  9 11 mph 1021.3mb 53f 54f
10:30am  -   -  11 13 mph 1021.3mb 53f 54f
10:20am  -   -  9 11 mph 1021.2mb 53f 54f
10:10am  -   -  11 13 mph 1021.4mb 53f 54f
10:00am  -   -  11 13 mph 1021.4mb 53f 54f
9:50am 3ft 10s 11 13 mph 1021.4mb 53f 54f
9:40am  -   -  11 16 mph 1021.3mb 53f 54f
9:30am  -   -  11 13 mph 1021.3mb 53f 54f
9:20am  -   -  11 13 mph 1021.4mb 53f 54f
9:10am  -   -  11 16 mph 1021.5mb 53f 54f
9:00am  -   -  13 16 mph 1021.4mb 53f 54f
8:50am 3ft 10s 13 16 mph 1021.2mb 53f 54f
8:40am  -   -  13 18 mph 1021mb 53f 54f
8:30am  -   -  13 18 mph 1020.9mb 53f 54f
8:20am  -   -  13 20 mph 1020.9mb 52f 54f
8:10am  -   -  13 18 mph 1021mb 53f 54f
8:00am  -   -  13 16 mph 1020.8mb 53f 54f
7:50am 3ft 11s 16 20 mph 1020.6mb 53f 54f
7:40am  -   -  13 18 mph 1020.5mb 53f 54f
7:30am  -   -  13 16 mph 1020.4mb 53f 54f
7:20am  -   -  13 18 mph 1020.4mb 53f 54f
7:10am  -   -  11 16 mph 1020.3mb 53f 54f
7:00am  -   -  13 16 mph 1020.3mb 53f 54f
6:50am 3ft 13s 13 20 mph 1020.2mb - 54f
6:40am  -   -  13 18 mph 1020.2mb 53f 54f
6:30am  -   -  13 20 mph 1020.3mb 53f 54f
6:20am  -   -  13 18 mph 1020.2mb 53f 54f
6:10am  -   -  13 16 mph 1020.3mb 53f 54f
6:00am  -   -  13 16 mph 1020.2mb 53f 54f
5:50am 3ft 10s 13 20 mph 1020.1mb 53f 54f
5:40am  -   -  13 18 mph 1020mb 53f 54f
5:30am  -   -  13 20 mph 1020mb 53f 54f
5:20am  -   -  13 18 mph 1020mb 53f 54f
5:10am  -   -  13 16 mph 1019.9mb 53f 54f
5:00am  -   -  13 18 mph 1020mb - 54f
4:50am 3ft 11s 11 16 mph 1020.1mb 53f 54f
4:40am  -   -  11 16 mph 1020.2mb 53f 54f
4:30am  -   -  11 16 mph 1020.2mb 52f 54f
4:20am  -   -  13 16 mph 1020.2mb 52f 54f
4:10am  -   -  11 16 mph 1020.1mb 53f 54f
4:00am  -   -  11 16 mph 1020.1mb 53f 54f
3:50am 3ft 11s 11 13 mph 1020.1mb 53f 54f
3:40am  -   -  11 13 mph 1020.1mb 53f 54f
3:30am  -   -  13 16 mph 1020mb - 54f
3:20am  -   -  11 16 mph 1020mb 53f 54f
3:10am  -   -  9 13 mph 1020mb 53f 54f
3:00am  -   -  11 13 mph 1020mb 53f 54f
2:50am 3.5ft 11s 11 13 mph 1020mb 53f 54f
2:40am  -   -  9 13 mph 1019.9mb 53f 54f
2:30am  -   -  9 11 mph 1019.9mb 53f 54f
2:20am  -   -  11 16 mph 1019.8mb 53f 54f
2:10am  -   -  9 11 mph 1019.9mb 53f 54f
2:00am  -   -  9 11 mph 1019.8mb 53f 54f
1:50am 3ft 11s 9 13 mph 1019.8mb 53f 54f
1:40am  -   -  7 9 mph 1019.7mb 53f 54f
1:30am  -   -  9 13 mph 1019.9mb 53f 54f
1:20am  -   -  9 13 mph 1019.9mb 53f 54f
1:10am  -   -  9 11 mph 1019.7mb 53f 54f
1:00am  -   -  9 13 mph 1019.7mb 53f 54f
12:50am 3.5ft 11s 9 13 mph 1019.7mb 53f 54f
12:40am  -   -  9 11 mph 1019.8mb 53f 54f
12:30am  -   -  7 11 mph 1019.9mb 53f 54f
12:20am  -   -  9 11 mph 1019.8mb 53f 54f
12:10am  -   -  9 11 mph 1020mb 53f 54f
12:00am  -   -  9 13 mph 1019.9mb 53f 54f
Wed 06/20 11:50pm 3.5ft 10s 9 13 mph 1019.9mb 53f 54f
11:40pm  -   -  9 11 mph 1019.9mb 53f 55f
11:30pm  -   -  9 16 mph 1020.1mb 53f 55f
11:20pm  -   -  9 9 mph 1020.1mb 53f 55f
11:10pm  -   -  9 13 mph 1020.2mb 53f 55f
11:00pm  -   -  9 11 mph 1020.2mb 53f 54f
10:50pm 3.5ft 10s 9 11 mph 1020.3mb 53f 55f
10:40pm  -   -  9 13 mph 1020.3mb 53f 55f
10:30pm  -   -  11 13 mph 1020.1mb 53f 55f
10:20pm  -   -  9 11 mph 1020.2mb 53f 55f
10:10pm  -   -  9 13 mph 1020.1mb 53f 55f
10:00pm  -   -  9 11 mph 1020.1mb 53f 55f
9:50pm 3.5ft 10s 9 11 mph 1020mb 53f 55f
9:40pm  -   -  7 11 mph 1019.9mb 53f 55f
9:30pm  -   -  9 13 mph 1019.5mb 53f 55f
9:20pm  -   -  7 13 mph 1019.7mb 53f 55f
9:10pm  -   -  7 9 mph 1019.6mb 53f 55f
9:00pm  -   -  7 9 mph 1019.6mb 52f 55f
8:50pm 3.5ft 11s 7 7 mph 1019.7mb 53f 55f
8:40pm  -   -  7 9 mph 1019.8mb 52f 55f
8:30pm  -   -  4 7 mph 1019.7mb 53f 55f
8:20pm  -   -  4 9 mph 1019.8mb 53f 55f
8:10pm  -   -  4 7 mph 1019.8mb 53f 55f
8:00pm  -   -  7 9 mph 1019.8mb 54f 55f
7:50pm 3.5ft 11s 7 9 mph 1019.7mb 53f 55f
7:40pm  -   -  7 9 mph 1019.7mb 53f 55f
7:30pm  -   -  7 9 mph 1019.5mb 54f 55f
7:20pm  -   -  7 9 mph 1019.5mb 53f 55f
7:10pm  -   -  7 11 mph 1019.3mb 53f 55f
7:00pm  -   -  4 7 mph 1019.3mb 53f 55f
6:50pm 3.5ft 11s 7 9 mph 1019.2mb 54f 55f
6:40pm  -   -  7 11 mph 1019.2mb 54f 55f
6:30pm  -   -  7 9 mph 1019.2mb 53f 55f
6:20pm  -   -  4 7 mph 1019.3mb 54f 55f
6:10pm  -   -  4 7 mph 1019.3mb 53f 55f
6:00pm  -   -  4 4 mph 1019.2mb 53f 55f
5:50pm 3.5ft 12s 4 7 mph 1019.2mb 53f 55f
5:40pm  -   -  4 7 mph 1019.2mb 53f 55f
5:30pm  -   -  4 9 mph 1019.2mb 53f 55f
5:20pm  -   -  4 7 mph 1019.3mb 53f 55f
5:10pm  -   -  4 9 mph 1019.5mb 53f 55f
5:00pm  -   -  7 9 mph 1019.6mb 53f 55f
4:50pm 3.5ft 11s 7 9 mph 1019.6mb 53f 55f
4:40pm  -   -  7 9 mph 1019.7mb 53f 55f
4:20pm  -   -  7 9 mph 1019.8mb 53f 55f
4:10pm  -   -  9 11 mph 1019.7mb 53f 55f
4:00pm  -   -  7 9 mph 1019.8mb 53f 55f
3:50pm 3.5ft 11s 7 9 mph 1019.8mb 53f 55f
3:40pm  -   -  7 9 mph 1019.9mb 53f 55f
3:30pm  -   -  4 7 mph 1019.9mb 53f 55f
3:20pm  -   -  4 7 mph 1019.9mb 53f 55f
3:10pm  -   -  7 7 mph 1019.8mb 53f 54f
3:00pm  -   -  4 7 mph 1019.9mb 53f 54f
2:50pm 3ft 11s 4 7 mph 1019.9mb 53f 54f
2:40pm  -   -  4 7 mph 1020mb 53f 54f
2:30pm  -   -  4 7 mph 1020mb 54f 54f
2:20pm  -   -  7 9 mph 1020mb 54f 54f
2:10pm  -   -  7 9 mph 1019.9mb 54f 54f
2:00pm  -   -  7 9 mph 1019.8mb 54f 54f
1:50pm 3.5ft 11s 7 9 mph 1019.8mb 54f 54f
1:40pm  -   -  9 11 mph 1019.9mb 54f 54f
1:30pm  -   -  9 11 mph 1020mb 54f 54f
1:20pm  -   -  9 11 mph 1020mb 54f 54f
1:10pm  -   -  9 11 mph 1020mb 54f 53f
1:00pm  -   -  9 11 mph 1019.9mb 53f 53f
12:10pm  -   -  9 13 mph 1019.6mb 53f 53f
12:00pm  -   -  9 11 mph 1019.5mb 53f 53f
11:50am 4ft 11s 11 13 mph 1019.5mb 53f 53f
11:40am  -   -  11 13 mph 1019.3mb 53f 53f
11:30am  -   -  9 13 mph 1019.3mb 53f 53f
11:20am  -   -  9 11 mph 1019.2mb 53f 53f
11:10am  -   -  9 13 mph 1019.2mb 53f 52f
11:00am  -   -  11 13 mph 1019mb 53f 52f
10:50am 4ft 11s 9 11 mph 1018.9mb 53f 53f
10:40am  -   -  9 11 mph 1018.8mb 53f 53f
10:30am  -   -  9 11 mph 1018.7mb 53f 53f
10:20am  -   -  7 11 mph 1018.8mb 53f 53f
10:10am  -   -  7 9 mph 1018.8mb 52f 52f
10:00am  -   -  9 11 mph 1018.7mb 53f 52f
9:50am 4.5ft 14s 7 9 mph 1018.7mb 53f 52f
9:40am  -   -  7 9 mph 1018.8mb 53f 52f
9:30am  -   -  7 9 mph 1018.7mb 53f 52f
9:20am  -   -  7 9 mph 1018.7mb 53f 52f
9:10am  -   -  7 9 mph 1018.7mb 53f 52f
9:00am  -   -  9 9 mph 1018.7mb 53f 52f
8:50am 4.5ft 10s 7 9 mph 1018.6mb 53f 52f
8:40am  -   -  9 11 mph 1018.6mb 53f 52f
8:30am  -   -  7 9 mph 1018.4mb 53f 52f
8:20am  -   -  7 9 mph 1018.3mb 53f 52f
8:10am  -   -  9 11 mph 1018.2mb 53f 52f
8:00am  -   -  7 9 mph 1018.1mb 54f 52f
7:50am 4ft 12s 7 9 mph 1017.9mb 54f 52f
7:40am  -   -  7 9 mph 1017.9mb 54f 52f
7:30am  -   -  7 9 mph 1018mb 54f 52f
7:20am  -   -  7 9 mph 1018.1mb 54f 52f
7:10am  -   -  9 9 mph 1018.1mb 54f 53f
7:00am  -   -  7 9 mph 1018mb 53f 53f
6:50am 3.5ft 14s 7 9 mph 1018.1mb 53f 53f
6:40am  -   -  7 9 mph 1018mb 53f 53f
6:30am  -   -  4 7 mph 1017.9mb 53f 53f
6:20am  -   -  7 9 mph 1017.8mb 53f 53f
6:10am  -   -  7 9 mph 1017.9mb 53f 53f
6:00am  -   -  7 9 mph 1017.7mb 53f 53f
5:50am 4ft 12s 4 7 mph 1017.6mb 53f 53f
5:40am  -   -  4 7 mph 1017.6mb - 53f
5:30am  -   -  7 7 mph 1017.6mb 54f 53f
5:20am  -   -  7 9 mph 1017.5mb 54f 53f
5:10am  -   -  7 9 mph 1017.4mb 54f 53f
5:00am  -   -  4 9 mph 1017.4mb 54f 53f
4:50am 3.5ft 13s 7 9 mph 1017.5mb 54f 53f
4:40am  -   -  7 9 mph 1017.6mb 54f 53f
4:30am  -   -  4 7 mph 1017.6mb 54f 53f
4:20am  -   -  4 7 mph 1017.6mb 54f 53f
4:10am  -   -  2 4 mph 1017.6mb 53f 53f
4:00am  -   -  2 4 mph 1017.5mb 53f 53f
3:50am 4.5ft 13s 2 2 mph 1017.4mb 53f 53f
3:40am  -   -   -  2 mph 1017.5mb 53f 53f
3:30am  -   -  2 4 mph 1017.6mb 53f 53f
3:20am  -   -  2 4 mph 1017.7mb 53f 53f
3:10am  -   -  2 2 mph 1017.7mb 53f 53f
3:00am  -   -  2 2 mph 1017.7mb 53f 53f
2:50am 4ft 14s 2 4 mph 1017.6mb 53f 53f
2:40am  -   -  2 2 mph 1017.6mb 53f 53f
2:30am  -   -  2 4 mph 1017.7mb 53f 53f
2:20am  -   -  2 4 mph 1017.6mb 53f 53f
2:10am  -   -  2 4 mph 1017.8mb 52f 53f
2:00am  -   -  2 4 mph 1017.8mb 53f 53f
1:50am 4ft 13s 4 7 mph 1017.8mb 53f 53f
1:40am  -   -  4 7 mph 1017.9mb 53f 53f
1:30am  -   -  4 7 mph 1018mb 53f 53f
1:20am  -   -  4 7 mph 1018.1mb 53f 54f
1:10am  -   -  4 7 mph 1018.2mb 53f 54f
1:00am  -   -  4 7 mph 1018.3mb 53f 54f
12:50am 4.5ft 14s 4 7 mph 1018.4mb 53f 54f
12:40am  -   -  4 7 mph 1018.5mb 53f 54f
12:30am  -   -  4 9 mph 1018.5mb 53f 54f
12:20am  -   -  4 7 mph 1018.6mb 53f 54f
12:10am  -   -  4 7 mph 1018.6mb 53f 54f
12:00am  -   -  4 7 mph 1018.7mb 53f 54f
Tue 06/19 11:50pm 4.5ft 14s 4 7 mph 1018.7mb 53f 54f
11:40pm  -   -  4 4 mph 1018.7mb 53f 54f
11:30pm  -   -  2 4 mph 1018.9mb 53f 54f
11:20pm  -   -  4 7 mph 1018.9mb 53f 54f
11:10pm  -   -  2 4 mph 1018.9mb 53f 54f
11:00pm  -   -  2 4 mph 1019mb 52f 54f
10:50pm 4.5ft 14s 4 7 mph 1019mb 53f 54f
10:40pm  -   -  4 7 mph 1019mb 53f 54f
10:30pm  -   -  7 9 mph 1019mb 53f 54f
10:20pm  -   -  7 9 mph 1018.8mb 52f 54f
10:10pm  -   -  7 9 mph 1018.9mb 52f 54f
10:00pm  -   -  4 7 mph 1018.7mb 52f 54f
9:50pm  -   -  7 11 mph 1018.7mb 52f 54f
9:40pm  -   -  7 9 mph 1018.6mb 52f 54f
9:30pm  -   -  7 9 mph 1018.5mb 52f 54f
9:20pm  -   -  4 9 mph 1018.6mb 52f 53f
9:10pm  -   -  4 4 mph 1018.6mb 52f 53f
9:00pm  -   -  4 9 mph 1018.6mb 52f 53f
8:50pm 4.5ft 11s 7 9 mph 1018.4mb 52f 53f
8:40pm  -   -  4 7 mph 1018.6mb 52f 53f
8:30pm  -   -  7 7 mph 1018.4mb 52f 53f
8:20pm  -   -  7 7 mph 1018.3mb 52f 53f
8:10pm  -   -  4 7 mph 1018.4mb 52f 54f
8:00pm  -   -  7 7 mph 1018.4mb 52f 54f
7:50pm 4.5ft 11s 7 9 mph 1018.4mb 52f 54f
7:40pm  -   -  7 9 mph 1018.4mb 52f 54f
7:30pm  -   -  4 7 mph 1018.7mb 52f 54f
7:20pm  -   -  4 7 mph 1018.7mb 52f 54f
7:10pm  -   -  4 7 mph 1018.7mb 52f 54f
7:00pm  -   -  4 7 mph 1018.7mb 51f 54f
6:50pm 4.5ft 14s 4 7 mph 1018.8mb 51f 54f
6:40pm  -   -  4 7 mph 1018.7mb 51f 54f
6:30pm  -   -  4 7 mph 1018.7mb 51f 54f
6:20pm  -   -  4 7 mph 1018.7mb 51f 54f
6:10pm  -   -  7 7 mph 1018.7mb 51f 54f
6:00pm  -   -  4 7 mph 1018.9mb 52f 54f
5:50pm 4.5ft 14s 7 7 mph 1018.9mb 51f 54f
5:40pm  -   -  7 9 mph 1018.7mb 52f -
5:30pm  -   -  7 9 mph 1019mb 52f 54f
5:20pm  -   -  4 7 mph 1019.1mb 53f 54f
5:10pm  -   -  7 7 mph 1019.2mb 52f 54f
5:00pm  -   -  7 7 mph 1019.2mb 53f 54f
4:50pm 4.5ft 12s 7 9 mph 1019.1mb 53f 54f
4:40pm  -   -  7 9 mph 1019mb 54f 54f
4:30pm  -   -  7 9 mph 1018.9mb 52f 55f
4:20pm  -   -  2 7 mph 1019mb 52f 55f
4:10pm  -   -  2 4 mph 1019.2mb 51f 54f
4:00pm  -   -  4 4 mph 1019mb 51f 54f
3:50pm 4.5ft 12s 4 4 mph 1019.3mb 51f 54f
3:40pm  -   -  4 7 mph 1019.2mb 51f 54f
3:30pm  -   -  4 7 mph 1019.1mb 52f 54f
3:20pm  -   -  4 7 mph 1019mb 51f 54f
3:10pm  -   -  4 7 mph 1018.9mb 51f 53f
3:00pm  -   -  4 7 mph 1019.1mb 51f 53f
2:50pm 5ft 11s 4 4 mph 1019.1mb 51f 53f
2:40pm  -   -  4 7 mph 1019.1mb 51f 53f
2:30pm  -   -  4 7 mph 1019.2mb 51f 53f
2:20pm  -   -  4 4 mph 1019.1mb - 53f
2:10pm  -   -  2 4 mph 1019.1mb 51f 54f
2:00pm  -   -  2 4 mph 1019.1mb 51f 54f
1:50pm 4.5ft 11s 2 4 mph 1019.2mb 51f 54f
1:40pm  -   -  2 4 mph 1019mb 51f 53f
1:30pm  -   -  4 4 mph 1019mb 51f 53f
1:20pm  -   -  4 7 mph 1019mb 52f 53f
1:10pm  -   -  4 7 mph 1019.1mb 51f 53f
1:00pm  -   -  4 7 mph 1019.1mb 52f 53f
12:50pm 4.5ft 14s 4 7 mph 1019.3mb 51f 53f
12:40pm  -   -  4 4 mph 1019.3mb 52f 53f
12:30pm  -   -  4 7 mph 1019.4mb 52f 53f
12:20pm  -   -  4 7 mph 1019.5mb 52f 53f
12:10pm  -   -  4 7 mph 1019.6mb 51f 53f
12:00pm  -   -  2 4 mph 1019.6mb 51f 53f
11:50am 5.5ft 11s 2 4 mph 1019.7mb 51f 53f
11:40am  -   -  2 4 mph 1019.5mb 51f 53f
11:30am  -   -  2 4 mph 1019.7mb 51f 53f
11:20am  -   -   -  2 mph 1019.7mb 51f 53f
11:10am  -   -   -  2 mph 1019.7mb 51f 53f
11:00am  -   -   -  4 mph 1019.7mb 51f 52f
10:50am 5.5ft 12s 2 4 mph 1019.7mb 51f 52f
10:40am  -   -  2 4 mph 1019.6mb 51f 52f
10:30am  -   -  4 7 mph 1019.5mb 51f 52f
10:20am  -   -  4 7 mph 1019.2mb 51f 52f
10:10am  -   -  4 7 mph 1019.1mb 51f 52f
10:00am  -   -  7 9 mph 1019.1mb 51f 52f
9:50am 5.5ft 12s 4 9 mph 1019.1mb 51f 52f
9:40am  -   -  4 7 mph 1019.4mb 51f 52f
9:30am  -   -  4 7 mph 1019.4mb 51f 52f
9:20am  -   -  7 9 mph 1019.3mb 51f 52f
9:10am  -   -  7 9 mph 1019.4mb 51f 52f
9:00am  -   -  7 9 mph 1019.3mb 51f 52f
8:50am 6ft 12s 4 7 mph 1019.3mb 51f 52f
8:40am  -   -  7 7 mph 1019.2mb 51f 52f
8:30am  -   -  7 7 mph 1019.2mb - 52f
8:20am  -   -  7 9 mph 1019mb 51f 52f
8:10am  -   -  7 9 mph 1019mb 51f 52f
8:00am  -   -  7 9 mph 1018.9mb 51f 52f
7:50am 5.5ft 15s 7 9 mph 1018.8mb 51f 52f
7:40am  -   -  4 7 mph 1018.8mb 51f 52f
7:30am  -   -  4 7 mph 1018.7mb 51f 52f
7:20am  -   -  4 7 mph 1018.6mb 51f 52f
7:10am  -   -  4 7 mph 1018.6mb 51f 52f
7:00am  -   -  7 9 mph 1018.5mb 51f 52f
6:50am 5ft 12s 7 9 mph 1018.4mb 51f 52f
6:40am  -   -  9 11 mph 1018.3mb 51f 52f
6:30am  -   -  9 13 mph 1018mb 51f 52f
6:20am  -   -  9 13 mph 1018mb 51f 52f
6:10am  -   -  9 13 mph 1018.1mb 51f 52f
6:00am  -   -  11 16 mph 1017.9mb 51f 52f
5:50am 5ft 12s 11 16 mph 1017.7mb 51f 52f
5:40am  -   -  11 13 mph 1017.8mb 51f 52f
5:30am  -   -  9 13 mph 1017.8mb 51f 52f
5:20am  -   -  9 11 mph 1018mb 51f 52f
5:10am  -   -  9 13 mph 1018.2mb 51f 52f
5:00am  -   -  9 11 mph 1018.3mb 51f 52f
4:50am 5ft 12s 7 9 mph 1018.3mb 51f 52f
4:40am  -   -  7 9 mph 1018.3mb 51f 52f
4:30am  -   -  7 9 mph 1018.3mb 51f 52f
4:20am  -   -  7 9 mph 1018.3mb 51f 52f